User: anonymous   Login
Location: The Jewett Observatory
(46.7288°N, 117.1525°W)
Time: 03:49:58
(UTC-07:00)
Language:

Cosmos 1844 Rocket - Orbit

View from above orbital plane
View from above orbital plane
View from above satellite
View from above satellite

Ground track
Ground track

The orbit data is extracted from the following two-line orbital elements,

1 17974U 87041B   17204.48724812 -.00000221 +00000-0 -85720-4 0  9991
2 17974 071.0065 193.3627 0015030 330.1318 163.7020 14.17230083561626
Epoch (UTC): 23 July 2017 11:41:38
Eccentricity: 0.0015030
inclination: 71.0065°
perigee height: 824 km
apogee height: 845 km
right ascension of ascending node: 193.3627°
argument of perigee: 330.1318°
revolutions per day: 14.17230083
mean anomaly at epoch: 163.7020°
orbit number at epoch: 56162

The dashed part of the orbit path shows where the satellite is in the earth's shadow,  

DLR